EW8629 Weather Reports


Display with metric or nautical units.
time (UTC)temp
F
wind
direction
speed
MPH
gust
MPH
rain 1hr
in
rain 24hr
in
rain mn
in
humidity
%
barometer
mb
20180624223022 67 0.0 1.0 0.00 0.16 0.02 69 1009.5
20180624222018 67 233 0.0 4.0 0.00 0.16 0.02 69 1009.5
20180624221114 67 0.0 0.0 0.00 0.16 0.02 69 1009.4
20180624220110 67 326 0.0 3.0 0.00 0.16 0.02 69 1009.4
20180624215106 67 63 0.0 2.0 0.00 0.16 0.02 69 1009.5
20180624214100 67 270 0.0 2.0 0.00 0.16 0.02 68 1009.5
20180624213056 68 315 0.0 2.0 0.00 0.16 0.02 67 1009.3
20180624212052 68 193 2.0 5.0 0.00 0.16 0.02 67 1009.3
20180624211048 69 338 1.0 3.0 0.00 0.16 0.02 67 1009.1
20180624210044 69 270 0.0 2.0 0.00 0.18 0.02 65 1009.1
20180624205040 70 321 1.0 4.0 0.00 0.21 0.02 64 1009.1
20180624204036 72 265 1.0 4.0 0.00 0.22 0.02 61 1008.9
20180624203032 74 180 0.0 3.0 0.00 0.22 0.02 61 1008.7
20180624202057 74 345 0.0 2.0 0.00 0.23 0.02 61 1008.8
20180624201053 73 243 1.0 3.0 0.00 0.24 0.02 61 1008.8
20180624200049 72 337 0.0 2.0 0.00 0.25 0.02 62 1008.9
20180624195045 71 0 0.0 2.0 0.00 0.27 0.02 63 1008.7
20180624194041 71 0.0 0.0 0.00 0.28 0.02 63 1008.9
20180624193037 70 315 0.0 2.0 0.00 0.28 0.02 64 1008.9
20180624192032 70 270 0.0 3.0 0.00 0.28 0.02 64 1008.7
20180624191028 70 265 1.0 4.0 0.00 0.28 0.02 63 1008.7
20180624190023 71 0 0.0 2.0 0.00 0.28 0.02 61 1008.7
20180624185018 72 270 0.0 2.0 0.00 0.28 0.02 61 1008.7
20180624184114 71 0 0.0 2.0 0.00 0.28 0.02 62 1008.8
20180624183110 71 266 1.0 4.0 0.00 0.28 0.02 61 1008.8
20180624182106 73 0 0.0 4.0 0.00 0.28 0.02 60 1008.7
20180624181102 72 186 1.0 3.0 0.00 0.28 0.02 60 1008.7
20180624180058 70 248 0.0 2.0 0.00 0.28 0.02 61 1008.8
20180624175054 71 288 1.0 4.0 0.00 0.28 0.02 60 1008.9
20180624174050 71 311 1.0 4.0 0.00 0.28 0.02 60 1008.9
20180624173046 70 255 1.0 3.0 0.00 0.28 0.02 61 1009.0
20180624172042 72 250 2.0 6.0 0.00 0.28 0.02 59 1009.1
20180624171038 70 233 2.0 4.0 0.00 0.28 0.02 61 1008.9
20180624170033 69 306 2.0 5.0 0.00 0.28 0.02 61 1009.3
20180624165030 71 309 2.0 4.0 0.00 0.28 0.02 61 1009.4
20180624164025 68 296 1.0 3.0 0.00 0.28 0.02 64 1009.5
20180624163022 67 318 1.0 4.0 0.00 0.28 0.02 63 1009.5
20180624162018 69 273 1.0 4.0 0.00 0.28 0.02 61 1009.3
20180624161113 69 322 0.0 2.0 0.00 0.28 0.02 63 1009.5
20180624160109 67 233 2.0 4.0 0.00 0.28 0.02 64 1009.5
20180624155105 67 258 2.0 4.0 0.00 0.28 0.02 63 1009.7
20180624154100 67 279 1.0 4.0 0.00 0.28 0.02 64 1009.7
20180624153056 67 339 1.0 3.0 0.00 0.28 0.02 63 1009.9
20180624152052 68 321 1.0 3.0 0.00 0.28 0.02 63 1009.9
20180624151048 65 315 0.0 2.0 0.00 0.28 0.02 66 1010.2
20180624150043 65 335 0.0 2.0 0.00 0.28 0.02 66 1010.1
20180624145039 65 90 0.0 2.0 0.00 0.28 0.02 65 1009.9
20180624144035 64 351 1.0 3.0 0.00 0.28 0.02 66 1009.8
20180624143031 66 0 1.0 4.0 0.00 0.28 0.02 65 1009.9
20180624142026 64 315 1.0 3.0 0.00 0.28 0.02 67 1009.9
20180624141022 65 29 1.0 3.0 0.00 0.28 0.02 67 1009.9
20180624140018 62 351 1.0 3.0 0.00 0.28 0.02 69 1009.9
20180624135114 63 115 1.0 4.0 0.00 0.28 0.02 69 1009.7
20180624134110 63 277 1.0 3.0 0.00 0.28 0.02 70 1009.6
20180624133106 61 306 0.0 4.0 0.00 0.28 0.02 71 1009.7
20180624132102 60 305 1.0 5.0 0.00 0.28 0.02 73 1009.6
20180624131058 60 90 1.0 6.0 0.00 0.28 0.02 74 1009.6
20180624130056 59 299 3.0 6.0 0.00 0.28 0.02 75 1009.5
20180624125048 58 252 1.0 3.0 0.00 0.28 0.02 77 1009.2
20180624124044 56 135 1.0 5.0 0.00 0.28 0.02 81 1009.1
20180624123040 55 225 0.0 2.0 0.00 0.28 0.02 87 1009.2
20180624122036 53 0.0 1.0 0.00 0.28 0.02 92 1009.3
20180624121032 52 180 0.0 1.0 0.00 0.28 0.02 95 1009.3
20180624120028 51 315 0.0 4.0 0.00 0.28 0.02 97 1009.4
20180624115024 51 0 0.0 3.0 0.00 0.28 0.02 97 1009.6
20180624114020 51 180 0.0 1.0 0.00 0.28 0.02 99 1009.4
20180624113016 51 206 0.0 2.0 0.00 0.28 0.02 99 1009.3
20180624112111 50 284 0.0 1.0 0.00 0.28 0.02 99 1009.3
20180624111107 50 270 0.0 1.0 0.00 0.28 0.02 99 1009.4
20180624110103 50 0.0 0.0 0.00 0.28 0.02 99 1009.4
20180624105059 49 0.0 0.0 0.00 0.28 0.02 99 1009.4
20180624104055 49 288 0.0 2.0 0.00 0.28 0.02 99 1009.3
20180624103051 49 45 0.0 2.0 0.00 0.28 0.02 99 1009.3
20180624102045 49 0.0 0.0 0.00 0.28 0.02 99 1009.1
20180624101041 49 0.0 0.0 0.00 0.28 0.02 99 1008.9
20180624100036 49 0.0 0.0 0.00 0.28 0.02 99 1009.1
20180624095032 48 0.0 0.0 0.01 0.28 0.02 99 1009.2
20180624094028 47 0.0 0.0 0.01 0.28 0.02 99 1008.9
20180624093024 47 0.0 0.0 0.01 0.28 0.02 99 1009.0
20180624091016 47 0.0 0.0 0.01 0.28 0.02 99 1009.0
20180624090113 47 0.0 0.0 0.01 0.28 0.02 99 1008.9
20180624085109 47 0.0 0.0 0.00 0.27 0.01 99 1008.7
20180624084105 47 0.0 0.0 0.00 0.27 0.01 99 1008.6
20180624083100 48 0.0 0.0 0.00 0.27 0.01 99 1008.7
20180624082055 48 0.0 0.0 0.00 0.27 0.01 99 1008.9
20180624081052 48 0.0 0.0 0.00 0.27 0.01 99 1008.9
20180624080048 48 0.0 0.0 0.00 0.27 0.01 99 1009.0
20180624075042 48 0.0 0.0 0.00 0.27 0.01 99 1008.9
20180624074039 48 0.0 0.0 0.00 0.27 0.01 99 1008.9
20180624073034 48 0.0 0.0 0.00 0.27 0.01 99 1009.0
20180624072100 48 0.0 0.0 0.00 0.27 0.01 99 1009.0
20180624071056 48 0.0 0.0 0.00 0.27 0.01 99 1009.0
20180624070052 48 0.0 0.0 0.00 0.27 0.01 99 1009.1
20180624065048 48 0.0 0.0 0.00 0.27 0.01 99 1009.0
20180624064044 48 153 0.0 2.0 0.00 0.27 0.01 99 1009.2
20180624063039 48 0.0 0.0 0.00 0.27 0.01 99 1009.4
20180624062034 48 0.0 0.0 0.01 0.27 0.01 99 1009.7
20180624061030 48 0.0 0.0 0.01 0.27 0.01 99 1009.7
20180624060026 48 253 0.0 2.0 0.01 0.27 0.01 99 1009.6
20180624055021 48 45 0.0 1.0 0.01 0.27 0.01 99 1009.7
20180624054016 48 0 0.0 2.0 0.01 0.27 0.01 99 1009.8
20180624053113 48 0.0 1.0 0.01 0.27 0.01 99 1010.0
20180624052109 48 151 0.0 2.0 0.00 0.25 0.00 99 1009.8
20180624051105 48 342 0.0 3.0 0.00 0.25 0.00 99 1009.9
20180624050101 48 180 0.0 2.0 0.00 0.25 0.00 99 1010.1
20180624045057 48 0.0 1.0 0.00 0.25 0.00 99 1010.5
20180624044053 48 0.0 0.0 0.00 0.25 0.00 99 1010.6
20180624043049 48 259 0.0 2.0 0.00 0.25 0.00 99 1010.7
20180624042045 48 0 0.0 2.0 0.00 0.25 0.00 99 1010.6
20180624041041 48 270 0.0 2.0 0.00 0.25 0.00 99 1010.5
20180624040037 48 0 0.0 2.0 0.00 0.25 0.00 99 1010.5
20180624035033 48 19 0.0 3.0 0.01 0.25 0.25 99 1010.4
20180624034029 49 45 0.0 1.0 0.01 0.25 0.25 99 1010.7
20180624033025 49 0.0 0.0 0.01 0.25 0.25 99 1011.0
20180624032020 48 0.0 0.0 0.01 0.25 0.25 99 1011.0
20180624031016 48 0.0 0.0 0.01 0.25 0.25 99 1010.9
20180624030113 48 0.0 0.0 0.01 0.25 0.25 99 1011.0
20180624025109 48 0.0 0.0 0.00 0.24 0.24 99 1011.1
20180624024105 48 0.0 0.0 0.00 0.24 0.24 99 1011.3
20180624023101 48 0.0 0.0 0.00 0.24 0.24 99 1011.3
20180624022057 48 0.0 0.0 0.00 0.24 0.24 99 1011.3
20180624021053 48 90 1.0 3.0 0.00 0.24 0.24 99 1011.3
20180624020049 49 0.0 1.0 0.00 0.24 0.24 99 1011.4
20180624015045 49 0.0 0.0 0.00 0.24 0.24 99 1011.7
20180624014041 49 180 0.0 1.0 0.01 0.24 0.24 99 1011.7
20180624013037 49 239 0.0 1.0 0.08 0.24 0.24 99 1011.8
20180624012033 49 0 0.0 2.0 0.08 0.24 0.24 99 1011.7
20180624011029 49 0.0 0.0 0.09 0.24 0.24 99 1011.7
20180624010025 49 0 0.0 1.0 0.09 0.24 0.24 99 1011.8
20180624005021 49 0 0.0 1.0 0.10 0.24 0.24 99 1011.8
20180624004017 50 0.0 1.0 0.09 0.23 0.23 99 1011.8
20180624003113 50 315 0.0 2.0 0.03 0.16 0.16 99 1011.8
20180624002109 50 270 0.0 1.0 0.03 0.16 0.16 99 1011.9
20180624001105 50 0.0 1.0 0.02 0.15 0.15 99 1011.7
20180624000101 50 0 0.0 1.0 0.02 0.15 0.15 99 1012.0
20180623235056 50 0 0.0 1.0 0.02 0.14 0.14 99 1011.8
20180623234052 51 0 0.0 2.0 0.02 0.14 0.14 99 1012.0
20180623233048 51 0 0.0 1.0 0.01 0.12 0.12 99 1011.7
20180623232045 51 0 0.0 2.0 0.01 0.12 0.12 98 1011.8
20180623231041 51 90 0.0 2.0 0.01 0.12 0.12 97 1011.7
20180623230036 52 0.0 1.0 0.01 0.12 0.12 96 1011.8
20180623225032 52 0 0.0 1.0 0.00 0.11 0.11 92 1011.9
20180623224057 52 259 0.0 1.0 0.00 0.11 0.11 91 1012.0